Location: Kelshall
(52.0000°N, 0.0500°W)
Time: 02:47:58
(UTC+00:00)

ATLAS CENTAUR R/B - Pass Details

Date: 26 January 2021
Orbit: 475 x 670 km, 64.7° (Epoch: 06 March)

Event Time Altitude Azimuth Distance (km) Brightness Sun altitude
Exits shadow 06:04:26 20° 229° (SW) 1,144 2.6 -15.8°
Maximum altitude 06:06:50 77° 314° (NW) 495 0.9 -15.5°
Drops below altitude 10° 06:10:31 10° 41° (NE) 1,663 4.2 -14.9°
Sets 06:12:41 0° 43° (NE) 2,560 5.2 -14.6°
